Location: Drummondville
(45.8830°N, 72.4830°W)
Time: 03:29:40
(UTC-05:00)

N. Korean satellite - Pass Details

Date: 15 November 2017
Orbit: 460 x 515 km, 97.2° (Epoch: 17 November)

Event Time Altitude Azimuth Distance (km) Brightness Sun altitude
Rises 06:11:29 0° 20° (NNE) 2,596 10.3 -7.1°
Reaches altitude 10° 06:13:42 10° 29° (NNE) 1,716 9.5 -6.7°
Maximum altitude 06:17:08 36° 97° (E) 824 8.6 -6.2°
Drops below altitude 10° 06:20:34 10° 165° (SSE) 1,724 9.9 -5.6°
Sets 06:22:47 0° 174° (S) 2,610 10.7 -5.2°
